Location: Arborea
(39.7744°N, 8.5819°E)
Time: 04:06:46
(UTC+00:00)

USA 229 - Pass Details

Date: 24 October 2021
Orbit: 946 x 1266 km, 63.4° (Epoch: 25 November)

Event Time Altitude Azimuth Distance (km) Brightness Sun altitude
Rises 17:22:48 0° 199° (SSW) 3,606 6.8 -10.1°
Reaches altitude 10° 17:25:20 10° 195° (SSW) 2,679 6.1 -10.6°
Maximum altitude 17:31:26 58° 118° (ESE) 1,141 3.6 -11.8°
Drops below altitude 10° 17:37:55 10° 41° (NE) 2,849 5.5 -13.0°
Enters shadow 17:39:31 - 39° (NE) 3,427 6.0 -13.3°
